DW9082 Weather Reports


time (UTC)temp
C
wind
direction
speed
KPH
gust
KPH
rain 1hr
cm
rain 24hr
cm
rain mn
cm
humidity
%
barometer
mb
20260510230042 19 58 0.0 1.6 0.00 0.00 0.00 75 1013.4
20260510224530 20 316 0.0 8.0 0.00 0.00 0.00 73 1013.3
20260510223045 20 326 0.0 8.0 0.00 0.00 0.00 72 1013.2
20260510221525 21 322 3.2 16.1 0.00 0.00 0.00 71 1013.2
20260510220043 21 311 3.2 12.9 0.00 0.00 0.00 69 1013.1
20260510214527 22 300 8.0 19.3 0.00 0.00 0.00 63 1013.0
20260510213004 23 335 6.4 17.7 0.00 0.00 0.00 56 1012.8
20260510211531 23 304 3.2 9.7 0.00 0.00 0.00 54 1012.5
20260510210003 23 70 0.0 6.4 0.00 0.00 0.00 57 1012.0
20260510204535 24 20 0.0 4.8 0.00 0.00 0.00 56 1012.1
20260510203003 25 285 1.6 9.7 0.00 0.00 0.00 54 1012.2
20260510201545 24 283 4.8 12.9 0.00 0.00 0.00 55 1012.2
20260510200118 23 306 4.8 17.7 0.00 0.00 0.00 54 1012.4
20260510200002 23 309 8.0 22.5 0.00 0.00 0.00 54 1012.5
20260510194555 24 281 3.2 14.5 0.00 0.00 0.00 52 1012.5
20260510193002 25 298 1.6 16.1 0.00 0.00 0.00 47 1012.5
20260510191543 25 293 0.0 11.3 0.00 0.00 0.00 45 1012.7
20260510190025 25 266 8.0 16.1 0.00 0.00 0.00 43 1012.7
20260510184546 26 278 11.3 19.3 0.00 0.00 0.00 42 1012.8
20260510183015 26 200 0.0 12.9 0.00 0.00 0.00 46 1012.8
20260510181539 25 283 4.8 16.1 0.00 0.00 0.00 45 1012.9
20260510180017 25 224 8.0 16.1 0.00 0.00 0.00 48 1013.0
20260510174556 25 276 4.8 20.9 0.00 0.00 0.00 45 1013.0
20260510173013 25 264 4.8 17.7 0.00 0.00 0.00 48 1012.8
20260510171549 25 248 4.8 14.5 0.00 0.00 0.00 50 1013.0
20260510170015 25 270 8.0 12.9 0.00 0.00 0.00 52 1013.0
20260510164608 24 236 8.0 16.1 0.00 0.00 0.00 51 1013.0
20260510163031 23 252 1.6 11.3 0.00 0.00 0.00 52 1013.2
20260510161510 23 297 1.6 9.7 0.00 0.00 0.00 54 1013.1
20260510160032 23 296 3.2 11.3 0.00 0.00 0.00 54 1013.3
20260510154516 22 260 0.0 9.7 0.00 0.00 0.00 59 1013.4
20260510153047 21 257 6.4 16.1 0.00 0.00 0.00 60 1013.6
20260510151526 21 136 3.2 8.0 0.00 0.00 0.00 64 1013.5
20260510150055 21 44 1.6 6.4 0.00 0.00 0.00 67 1013.5
20260510144522 21 287 0.0 4.8 0.00 0.00 0.00 68 1013.6
20260510143034 20 65 0.0 0.0 0.00 0.00 0.00 73 1013.6
20260510141529 18 68 1.6 4.8 0.00 0.00 0.00 78 1013.7
20260510140010 17 269 0.0 4.8 0.00 0.00 0.00 81 1013.6
20260510134547 16 274 0.0 3.2 0.00 0.00 0.00 84 1013.5
20260510133014 15 306 0.0 0.0 0.00 0.00 0.00 88 1013.6
20260510131535 14 306 0.0 0.0 0.00 0.00 0.00 91 1013.7
20260510130007 12 308 0.0 0.0 0.00 0.00 0.00 93 1013.7
20260510124523 12 308 0.0 4.8 0.00 0.00 0.00 93 1013.6
20260510123057 12 285 0.0 3.2 0.00 0.00 0.00 93 1013.4
20260510121537 11 298 0.0 4.8 0.00 0.00 0.00 93 1013.2
20260510120053 11 273 1.6 6.4 0.00 0.00 0.00 93 1013.2
20260510114600 11 56 1.6 6.4 0.00 0.00 0.00 93 1012.9
20260510113057 11 269 1.6 8.0 0.00 0.00 0.00 93 1012.8
20260510111533 11 11 0.0 3.2 0.00 0.00 0.00 93 1012.6
20260510110100 11 101 0.0 1.6 0.00 0.00 0.00 93 1012.2
20260510110005 11 101 0.0 1.6 0.00 0.00 0.00 93 1012.2
20260510104516 10 100 0.0 1.6 0.00 0.00 0.00 93 1012.2
20260510103036 10 67 0.0 4.8 0.00 0.00 0.00 93 1012.0
20260510101514 10 41 0.0 4.8 0.00 0.00 0.00 93 1012.2
20260510100012 10 8 0.0 3.2 0.00 0.00 0.00 92 1012.1
20260510094557 10 267 0.0 4.8 0.00 0.00 0.00 92 1011.9
20260510093010 10 308 1.6 11.3 0.00 0.00 0.00 92 1011.9
20260510091549 10 309 0.0 1.6 0.00 0.00 0.00 92 1011.2
20260510090032 10 18 0.0 0.0 0.00 0.00 0.00 92 1011.1
20260510084548 10 128 0.0 1.6 0.00 0.00 0.00 92 1011.0
20260510083038 10 323 0.0 1.6 0.00 0.00 0.00 92 1011.0
20260510081548 10 252 0.0 1.6 0.00 0.00 0.00 92 1010.9
20260510080028 10 187 0.0 0.0 0.00 0.00 0.00 92 1010.7
20260510074506 10 186 0.0 0.0 0.00 0.00 0.00 91 1010.5
20260510073049 10 127 0.0 1.6 0.00 0.00 0.00 91 1010.4
20260510071514 10 127 0.0 1.6 0.00 0.00 0.00 91 1010.3
20260510070103 11 132 0.0 3.2 0.00 0.00 0.00 91 1010.2
20260510064510 11 108 0.0 1.6 0.00 0.00 0.00 91 1010.4
20260510063059 11 101 0.0 4.8 0.00 0.00 0.00 91 1010.6
20260510061518 11 72 0.0 3.2 0.00 0.00 0.00 91 1010.7
20260510060054 11 91 1.6 4.8 0.00 0.00 0.00 90 1010.6
20260510054538 11 101 1.6 3.2 0.00 0.00 0.00 90 1010.8
20260510053052 11 101 0.0 3.2 0.00 0.00 0.00 90 1010.8
20260510051537 11 111 0.0 3.2 0.00 0.00 0.00 90 1010.9
20260510050042 11 99 0.0 3.2 0.00 0.00 0.00 90 1010.9
20260510044508 11 98 1.6 4.8 0.00 0.00 0.00 90 1011.1
20260510043028 11 124 0.0 4.8 0.00 0.00 0.00 89 1011.1
20260510041506 11 101 1.6 4.8 0.00 0.00 0.00 89 1011.1
20260510040036 12 79 3.2 6.4 0.00 0.00 0.00 89 1011.1
20260510034550 12 75 1.6 6.4 0.00 0.00 0.00 89 1011.0
20260510033031 12 115 1.6 3.2 0.00 0.00 0.00 89 1010.9
20260510031553 12 98 1.6 4.8 0.00 0.00 0.00 89 1010.7
20260510030029 12 92 1.6 6.4 0.00 0.00 0.00 88 1010.6
20260510024545 12 70 1.6 4.8 0.00 0.00 0.00 88 1010.6
20260510023025 12 75 1.6 4.8 0.00 0.00 0.00 88 1010.7
20260510021505 12 89 1.6 4.8 0.00 0.00 0.00 87 1010.7
20260510020029 12 92 3.2 6.4 0.00 0.00 0.00 87 1010.7
20260510014505 13 105 1.6 6.4 0.00 0.00 0.00 86 1010.6
20260510013037 13 80 3.2 4.8 0.00 0.00 0.00 86 1010.6
20260510011511 13 80 1.6 6.4 0.00 0.00 0.00 85 1010.5
20260510010031 13 107 0.0 4.8 0.00 0.00 0.00 85 1010.4
20260510004511 13 91 1.6 4.8 0.00 0.00 0.00 84 1010.4
20260510003037 13 79 0.0 1.6 0.00 0.00 0.00 83 1010.3
20260510001523 14 85 0.0 3.2 0.00 0.00 0.00 81 1010.3
20260510000031 15 56 0.0 3.2 0.00 0.00 0.00 79 1010.3
20260509234515 15 114 0.0 6.4 0.00 0.00 0.00 78 1010.1
20260509233045 15 70 3.2 8.0 0.00 0.00 0.00 77 1010.0
20260509231557 16 111 1.6 6.4 0.00 0.00 0.00 75 1009.9